GOES 19

Last updated on Wed Oct 09 2024 00:02:17 GMT+0000 (Coordinated Universal Time)

1 60133U 24119A 24282.45484584 -.00000173 00000+0 00000+0 0 9990 2 60133 0.0409 37.6777 0001304 61.8794 352.2976 1.00271032 783
UTC large
Height (km)
Speed (km/s)
/
Latitude / Longitude
Inclination (degrees)
Orbital Period (minutes)
Azimuth
Elevation
Range (km)
Doppler Factor

Next 0 passes for location: London (51.5072 / 0.1276)

Sorry there are no passes over London.